Regional Weather Roundup
Issued by NWS

Home | Current Version | Previous Version | Text Only | Print | Product List | Glossary On
Versions: 1 2 3 4 5 6 7 8 9 10 11 12 13 14 15 16 17 18 19 20 21 22 23 24 25 26 27 28 29 30 31 32 33 34 35 36 37 38 39 40 41 42 43 44 45 46 47 48 49 50
618
ASHW40 PHFO 250812
RWRHI

WEATHER ROUNDUP FOR HAWAII
NATIONAL WEATHER SERVICE HONOLULU HI
1000 PM HST SUN JUL 24 2016

THIS IS AN AUTOMATED REPORT THAT HAS NOT BEEN QUALITY CONTROLLED.

NOTE..."FAIR" INDICATES FEW OR NO CLOUDS BELOW 12,000 FEET WITH NO
SIGNIFICANT WEATHER AND/OR OBSTRUCTIONS TO VISIBILITY.

* - THESE SITES REPORT LIMITED FIELDS

HIZ001>004-250900-
KAUAI-NIIHAU-

CITY           SKY/WX    TMP DP  RH WIND       PRES   REMARKS
LIHUE APT      PTCLDY    76  74  93 SE9       29.87R
PORT ALLEN*      N/A     79 N/A N/A W10G16      N/A
POIPU*           N/A     75 N/A N/A W3          N/A
PRINCEVILLE*     N/A     75 N/A N/A NW3         N/A
KOKOLE POINT*  NOT AVBL
MOLOAA DAIRY*    N/A     75  73  94 SW2G12      N/A
WAIMEA HTS*    NOT AVBL
PUU OPAE*      NOT AVBL
PUU LUA*       NOT AVBL
MAKAHA RIDGE*  NOT AVBL
$$

HIZ005>011-250900-
OAHU-

CITY           SKY/WX    TMP DP  RH WIND       PRES   REMARKS
HONOLULU       TSTM      75  75 100 S17G25    29.92R
KALAELOA       LGT RAIN  80  76  87 S24       29.93R
KANEOHE MCB    TSTM      79  77  94 S9        29.90R VSB 1
WHEELER FIELD  HVY RAIN  74  74  99 SE12G20   29.94  FOG
BELLOWS*       NOT AVBL
KAHUKU*        NOT AVBL
WHEELER*       NOT AVBL
WAIANAE HARBOR NOT AVBL
DILLINGHAM*      N/A     84  79  84 MISG        N/A  HX  96
KAHUKU TRN*      N/A     75  75 100 NW1G9       N/A
KAWAILOA*        N/A     73  70  88 SE5G14      N/A
KII*             N/A     75  73  94 SE13G20     N/A
MAKUA RANGE*     N/A     79  70  73 NE3G18      N/A
OAHU FOREST NW NOT AVBL
SCHOFIELD BRK*   N/A     79  77  94 MISG        N/A
SCHOFIELD S*   NOT AVBL
WAIANAE VLY*   NOT AVBL
KUAOKALA*      NOT AVBL
HONOULIUULI*   NOT AVBL
MOKUOLOE IS*   NOT AVBL
PALEHUA*       NOT AVBL
WAIAWA PHB*    NOT AVBL
$$

HIZ012>013-250900-
MOLOKAI-

CITY           SKY/WX    TMP DP  RH WIND       PRES   REMARKS
MOLOKAI AIRPT    N/A     79  74  84 SE9       29.98R
KALAUPAPA      NOT AVBL
MAKAPULAPAI*   NOT AVBL
MOLOKAI 1*     NOT AVBL
PUU ALII*      NOT AVBL
$$

HIZ016-250900-
KAHOOLAWE-

CITY           SKY/WX    TMP DP  RH WIND       PRES   REMARKS
KAHOOLAWE*     NOT AVBL
HAKIOAWA*      NOT AVBL
HONOKANAIA*      N/A     80  75  85 NE14G26   29.88R
KANELOA*         N/A     75  73  94 E14G28    30.02R
KEALIALALO*    NOT AVBL
LUA MAKIKA*    NOT AVBL
$$

HIZ014>015-250900-
LANAI-

CITY           SKY/WX    TMP DP  RH WIND       PRES   REMARKS
LANAI CITY     CLOUDY    74  73  97 SE15      30.02R
LANAI 1*       NOT AVBL
$$

HIZ017>028-250900-
MAUI-

CITY           SKY/WX    TMP DP  RH WIND       PRES   REMARKS
KAHULUI        PTCLDY    78  74  87 CALM      29.96R
KAPALUA-W MAUI NOT AVBL
HANA AIRPORT     N/A     77  75  94 SE10      30.00S
HANA*            N/A     79 N/A N/A SE7G16      N/A
HALEAKALA SUMM   N/A     45  45 100 SE22        N/A
MAALAEA BAY*   NOT AVBL
HALEAKALA*     NOT AVBL
KAUPO GAP*     NOT AVBL
KULA 1*          N/A     61  48  62 SE10G23     N/A
$$

HIZ023>026-250900-
BIG ISLAND OF HAWAII COAST AND LOWER SLOPES-

CITY           SKY/WX    TMP DP  RH WIND       PRES   REMARKS
KAILUA KONA    MOCLDY    79  77  94 NW13      29.93R
HILO           MOCLDY    78  74  87 S5        30.00R
HONOKAA*         N/A     73 N/A N/A VRB1        N/A
KAWAIHAE MWT*    N/A     82 N/A N/A S2          N/A
KAWAIHAE*      NOT AVBL
SOUTH POINT*     N/A     73 N/A N/A VRB13G20    N/A
UPOLU AIRPORT*   N/A    N/A N/A N/A E7          N/A
KAMUELA*       CLOUDY    70  66  88 NE5       30.10S
HAKALAU*         N/A     56  55  97 S8          N/A
KALOKO-HONOKO* NOT AVBL
PALI 2*          N/A     66  66 100 S3          N/A
KEALAKOMO*       N/A     79  73  83 NE8         N/A
KAUPULEHU*     NOT AVBL
KAPAPALA*        N/A     71  70  96 NE2         N/A
LOWER KAHUKU*  NOT AVBL
PUHE CS*       NOT AVBL
PUHO CS*       NOT AVBL
PTA KEAMUKU*     N/A     66  64  94 CALM        N/A
WAIKOLOA*      NOT AVBL
$$

HIZ027>028-250900-
BIG ISLAND OF HAWAII INTERIOR AND SUMMMITS-

CITY           SKY/WX    TMP DP  RH WIND       PRES   REMARKS
BRADSHAW FIELD FOG       59  59 100 W3        30.34R VSB 3/8
MK VISITOR CEN   N/A     54  32  43 NE6         N/A
MAUNA KEA*       N/A     34  27  75 NW13        N/A  WCI  25
MAUNA LOA*     NOT AVBL
MAUNA LOA 1*   NOT AVBL
PTA KIPUKA*      N/A     63  63 100 CALM        N/A
PTA RANGE 17*    N/A     70  70 100 W5          N/A
PTA WEST*        N/A     75  73  94 SE3         N/A
NENE CABIN*    NOT AVBL
AHUMOA*        NOT AVBL
PTA PORTABLE*  NOT AVBL
PUU MALI*        N/A     57  57 100 W5          N/A
$$

HIC003-250900-
NORTHWEST ISLANDS-

CITY           SKY/WX    TMP DP  RH WIND       PRES   REMARKS
MIDWAY ISLAND  MOCLDY    79  70  73 E16       30.18R
MIDWAY NOS*    NOT AVBL
FRENCH FRIGATE NOT AVBL
$$

PHZ110>124-180-250900-
BUOY REPORTS

STATION/POSITION TIME  TEMP    WIND        PRES    WAVE   SWELL
                       AIR SEA DIR/SP/G            HT/PER HT/DIR
                 (UTC) (F)     (DEG/KT/KT) (MB)    (FT/S) (FT/D)
BUOY 51001       0700   80 82   80/ 14/ 17 1016.3R
BUOY 51101       0750   77 78   40/ 17/ 19 1015.6R   8/ 9   5/ 80
BUOY 51100       NOT AVBL
BUOY 51002       0750   81 82   60/ 12/ 14 1014.0R   6/ 8   7
BUOY 51003       0750   80 82   CALM  /  2 1013.2R   5/ 8   5/ 30
BUOY 51004       0750   81 81   80/ 12/ 14 1014.6R   6/10   5/ 80
BARBERS PT BUOY  NOT AVBL
WAIMEA BAY BUOY  0704      79                N/A     4/ 8   2/ 40
KAILUA BAY BUOY  0711      79                N/A     8/ 8   2/ 40
LANAI BUOY       0715      81                N/A     4/ 6   2/190
BARBERS PT 2     NOT AVBL
PAUWELA MAUI     0709      79                N/A     8/ 9   3/ 70
HILO             0712      80                N/A     5/10   2/ 40
KANEOHE BAY BUOY 0706      78                N/A     6/ 7   2/ 70
HANALEI KAUAI    NOT AVBL
KAHULUI HARBOR   0700   79 79   60/  2/  6 1013.6R
HONOLULU HARBOR  0700   75 80  140/  7/ 17 1013.9R
KILO NALU        NOT AVBL
HILO HARBOR      0700   78 80  180/  5/  6 1014.8R
MOKUOLOE         0700   76 81  250/  3/  7 1012.9R
NAWILIWILI       0700   76 80  290/  5/  8 1010.5F
WHOTS BUOY       NOT AVBL
BUOY 51028       NOT AVBL
$$

......................KEY........................................
  SKY/WX - SKY CONDITIONS/PRESENT WEATHER
  TMP    - TEMPERATURE IN FAHRENHEIT
  DWPT   - DEWPOINT IN FAHRENHEIT
  RH     - RELATIVE HUMIDITY IN PERCENT
  WIND   - DIRECTION AND SPEED /MPH FOR ISLANDS...KTS FOR BUOYS/
  PRES   - MEAN SEA LEVEL PRESSURE IN INCHES OF HG
  VSB    - VISIBILITY IN MILES
  HX     - HEAT INDEX
  WCI    - WIND CHILL INDEX
  VRB    - VARIABLE WIND DIRECTION
  N/A    - NOT AVAILABLE




USA.gov is the U.S. government's official web portal to all federal, state and local government web resources and services.